This demonstration page uses our WeatherBlox Daily Observations layout. Learn more.

Left ArrowRight Arrow

53.62937, 11.41316

Hourly Observations for March 11, 2021

Temp ( °F °C ) Dew Point ( °F °C ) Humidity (%) Winds ( mph kmh ) Pressure ( in mb ) Visibility ( mi km ) Precip ( " mm )
7:50 am 07:50 Mostly Cloudy with Light Rain 43 6 41 5 93 93 SSE 12 19 29.38 995 30 48 N/A
8:20 am 08:20 Mostly Cloudy with Light Rain 43 6 41 5 93 93 SSE 14 22 29.35 994 3 5 N/A
8:50 am 08:50 Mostly Cloudy 43 6 41 5 93 93 SSE 12 19 29.35 994 30 48 N/A
9:20 am 09:20 Mostly Cloudy 45 7 41 5 87 87 SSE 14 22 29.32 993 30 48 N/A
9:50 am 09:50 Mostly Cloudy with Light Rain 45 7 43 6 93 93 SSE 13 20 29.30 992 3 5 N/A
10:20 am 10:20 Mostly Cloudy with Light Rain 45 7 43 6 93 93 SSE 15 24 29.30 992 3 5 N/A
10:50 am 10:50 Mostly Cloudy 45 7 45 7 100 100 S 12 19 29.30 992 30 48 N/A
11:20 am 11:20 Mostly Cloudy 48 9 45 7 87 87 S 13 20 29.27 991 30 48 N/A
11:50 am 11:50 Mostly Cloudy 50 10 45 7 82 82 S 15 24 29.24 990 30 48 N/A
12:20 pm 12:20 Mostly Cloudy with Showers Nearby 52 11 45 7 77 77 S 17 28 29.21 989 30 48 N/A
12:50 pm 12:50 Mostly Cloudy with Showers Nearby 52 11 43 6 72 72 SSW 23 37 29.21 989 30 48 N/A
1:20 pm 13:20 Partly Cloudy with Showers Nearby 52 11 41 5 67 67 SSW 20 31 29.18 988 30 48 N/A
1:50 pm 13:50 Partly Cloudy with Showers Nearby 54 12 43 6 67 67 S 21 33 29.18 988 30 48 N/A
2:20 pm 14:20 Partly Cloudy with Light Showers 50 10 45 7 82 82 S 17 28 29.18 988 3 4 N/A
2:50 pm 14:50 Partly Cloudy with Showers Nearby 50 10 43 6 76 76 S 23 37 29.15 987 30 48 N/A
3:20 pm 15:20 Mostly Cloudy with Light Rain 48 9 43 6 82 82 SSW 26 43 29.15 987 30 48 N/A
3:50 pm 15:50 Mostly Cloudy 48 9 43 6 82 82 SSW 29 46 29.15 987 30 48 N/A
4:20 pm 16:20 Mostly Cloudy with Light Rain 48 9 43 6 82 82 SSW 29 46 29.18 988 6 9 N/A
4:50 pm 16:50 Mostly Cloudy 48 9 41 5 76 76 SW 28 44 29.18 988 30 48 N/A
5:20 pm 17:20 Partly Cloudy 48 9 39 4 71 71 SW 29 46 29.18 988 30 48 N/A
5:50 pm 17:50 Mostly Cloudy 48 9 37 3 66 66 SW 25 41 29.21 989 30 48 N/A
6:20 pm 18:20 Mostly Cloudy 46 8 37 3 71 71 SW 26 43 29.24 990 30 48 N/A
6:50 pm 18:50 Mostly Cloudy 46 8 37 3 71 71 SW 23 37 29.27 991 30 48 N/A
7:20 pm 19:20 Mostly Cloudy 46 8 36 2 66 66 SW 21 33 29.27 991 30 48 N/A
7:50 pm 19:50 Partly Cloudy 46 8 36 2 66 66 SW 18 30 29.30 992 30 48 N/A

Powered by AerisWeather